Hanford, WA
on Thursday, January 31, 2013

Thursday
Previous Day Next Day
Daily Summary
 ActualAverage (KMWH)Record (KMWH)
Temperature
Mean Temperature °F 32°F  
Max Temperature 54°F 39°F 52°F (2005)
Min Temperature 33°F 26°F -2°F (1980)
Degree Days
Heating Degree Days 21 33  
Month to date heating degree days 1087  
Since 1 July heating degree days 3674  
Cooling Degree Days 0 0  
Month to date cooling degree days 0  
Year to date cooling degree days 0  
Moisture
Dew Point 36°F   
Average Humidity 70    
Maximum Humidity 87    
Minimum Humidity 51    
Precipitation
Precipitation 0.00 in 0.02 in 0.20 in (1986)
Month to date precipitation 1.14  
Year to date precipitation 1.14  
Wind
Wind Speed 7 mph   
Max Wind Speed 14 mph   
Max Gust Speed mph   
Visibility 15 miles   
Events Rain   

Key: T is trace of precipitation, MM is missing value
Source: NWS Daily Summary
Time(PST)TemperatureDew PointHumidity Pressure Visibility Wind DirectionWind SpeedGust SpeedPrecipitationEvents Conditions
12:50 AM 45.3°F 37.2°F 73% 30.25 in 15.0 miles SSW 5.8 mph - N/A Rain Light Rain
1:50 AM 43.2°F 36.9°F 78% 30.25 in 15.0 miles NNE 4.6 mph - N/A Rain Light Rain
2:50 AM 48.2°F 37.0°F 65% 30.27 in 15.0 miles WSW 11.5 mph - N/A   Overcast
3:50 AM 46.0°F 37.0°F 71% 30.27 in 15.0 miles West 8.1 mph - N/A   Overcast
4:50 AM 44.8°F 36.1°F 72% 30.27 in 15.0 miles West 8.1 mph - N/A   Mostly Cloudy
5:50 AM 47.5°F 36.0°F 64% 30.27 in 15.0 miles West 13.8 mph - N/A   Overcast
6:50 AM 45.3°F 35.8°F 69% 30.27 in 15.0 miles West 8.1 mph - N/A   Mostly Cloudy
7:50 AM 43.0°F 36.0°F 76% 30.27 in 15.0 miles SW 3.5 mph - N/A   Mostly Cloudy
8:50 AM 46.4°F 36.7°F 69% 30.27 in 15.0 miles West 6.9 mph - N/A   Overcast
9:50 AM 48.2°F 36.9°F 65% 30.29 in 15.0 miles WNW 11.5 mph - N/A   Overcast
10:50 AM 51.3°F 36.9°F 58% 30.30 in 15.0 miles WNW 10.4 mph - N/A   Overcast
11:50 AM 53.2°F 36.1°F 52% 30.28 in 15.0 miles NW 8.1 mph - N/A   Overcast
12:50 PM 54.0°F 36.1°F 51% 30.28 in 15.0 miles North 3.5 mph - N/A   Overcast
1:50 PM 53.2°F 37.0°F 54% 30.27 in 15.0 miles SSE 5.8 mph - N/A   Overcast
2:50 PM 52.3°F 37.0°F 56% 30.26 in 15.0 miles East 3.5 mph - N/A   Overcast
3:50 PM 49.6°F 38.8°F 66% 30.23 in 15.0 miles NW 4.6 mph - 0.00 in   Mostly Cloudy
4:50 PM 45.5°F 38.5°F 76% 30.23 in 15.0 miles SSW 4.6 mph - N/A   Partly Cloudy
5:50 PM 41.0°F 35.6°F 81% 30.23 in 15.0 miles SW 4.6 mph - N/A   Partly Cloudy
6:50 PM 37.2°F 33.8°F 87% 30.23 in 15.0 miles West 2.3 mph - N/A   Clear
9:50 PM 34.3°F 28.0°F 78% 30.23 in 15.0 miles South 3.5 mph - N/A   Clear
10:50 PM 34.0°F 30.4°F 87% 30.23 in 15.0 miles South 5.8 mph - N/A   Clear
11:50 PM 33.8°F 28.9°F 82% 30.23 in 15.0 miles ESE 6.9 mph - N/A   Clear
Moon Phase
Jan. 31 Feb. 03 Feb. 10 Feb. 17 Feb. 25
Sunrise:07:22 AM (PST) Moon Rise:10:32 PM (PST)1/31
Sunset:05:01 PM (PST) Moon Set:09:04 AM (PST)1/31

Copyright © 2014 The Weather Underground, Inc.